STARLINK-1759, 46340

Orbit data source: Space-Track

STARLINK-1759, 46340 is a payload satellite owned by SpaceX/Seattle (US) in LEO that was launched on Thu, 03 Sep 2020 UTC via an FALCON 9 launch vehicle from the Air Force Eastern Test Range (AFETR). Payloads include a variety of satellites, spacecraft, and rockets equipped with specific instruments for various scientific and technological missions. These include communications satellites like Starlink; space stations such as the ISS; scientific satellites like the Hubble; Earth observation satellites from companies like Planet Labs, Umbra, and HawkEye 360; GPS; miniature CubeSats for education and research; and military/defense satellites.

Loading next visibility...
STARLINK-1759 details
Identifier
46340, 2020-062R
Orbit
LEO
Last TLE update18 hours ago
Origin
Flag of USSpaceX/Seattle (US)
ManufacturerSpaceX/Seattle
MissionOperational Commercial Communications
Bus & MotorSTARLINK, Unknown motor
Mass260 kg wet, ~248 kg dry
Launch date (UTC)
2020-09-03 (4 years ago)
Launch vehicle
FALCON 9
Launch site
Air Force Eastern Test Range (AFETR)
Object type
Payload
Rocket body
Debris
Shape & HBRBox + 1 Pan, 8.86 m
Radar Cross Section13.562 m², Large (>1 m²)

Expand to show TLE details & history

TLE from 18 hours ago
0 STARLINK-1759
1 46340U 20062R   24360.87271502  .00003833  00000-0  27599-3 0  9996
2 46340  53.0525 186.8609 0001541  92.3789 267.7376 15.06412847238151
Epoch: 2024-12-25T20:56Z
Definitive object data (Epoch: 2024-12-25T20:56:42.577Z)
Latitude-0.00007°
Longitude137.82322°
Altitude548.093 km
Speed7.589 km/s
True Right ascension12h 27m 26s
True Declination0° 00' 00"
Sunlit
Object was in daylight at TLE epoch
Visualization TLE readout
Latitude26.76954°
Longitude156.68676°
Altitude547.827 km
Speed7.592 km/s
Apparent Right ascension12h 45m 13s
Apparent Declination-35° 48' 38"
Sunlit
Object is in daylight
Visualization observer readout
Local Sidereal Time13:58:32
Azimuth195.139° SSW
Elevation12.415°
Doppler factor1
Orbital elements
Apogee altitude548.51 km
Perigee altitude546.376 km
Semi-major axis6,925.58 km
Eccentricity0.0001541
Inclination53.0525°
RAAN186.8609°
Arg. of periapsis92.3789°
True anomaly267.71996°
Mean anomaly267.7376°
Eccentric anomaly267.72878°
Mean motion3.76581 °/min
BSTAR0.00027599
Orbital period95.6 mins
Loading maneuver chart data...
Loading historical data...
Loading historical data...
Loading historical data...
Loading historical data...
Loading historical data...
Loading historical data...
Loading historical data...

STARLINK-1759 Visibility forecast

Observer location: undefined°, undefined

Span
Click to sort rows by Start time (UTC) header in descending order
Start Az.
Max El. time (UTC)
Max El. Az.
Max El.
End time (UTC)
End Az.
7 mins2024-12-26 14:36:40.722Z195.042° SSW2024-12-26 14:39:40.722Z143.259° SSE28.986°2024-12-26 14:43:40.722Z66.974° ENE
5 mins2024-12-26 16:17:40.722Z279.527° WNW2024-12-26 16:19:40.722Z335.495° NNW30.676°2024-12-26 16:22:40.722Z33.414° NE
6 mins2024-12-26 21:18:40.722Z330.23° NNW2024-12-26 21:21:40.722Z45.169° ENE31.498°2024-12-26 21:24:40.722Z98.805° ESE
5 mins2024-12-26 22:58:40.722Z277.171° WNW2024-12-26 23:00:40.722Z231.389° WSW27.714°2024-12-26 23:03:40.722Z170.885° S
5 mins2024-12-27 14:31:40.722Z194.191° SSW2024-12-27 14:33:40.722Z131.382° SE36.155°2024-12-27 14:36:40.722Z64.8° ENE
|